EW6329 Weather Reports


Display with metric or nautical units.
time (UTC)temp
F
wind
direction
speed
MPH
gust
MPH
rain 1hr
in
rain 24hr
in
rain mn
in
humidity
%
barometer
mb
20260505011508 73 115 0.0 2.0 0.00 0.00 0.00 46 1007.7
20260505010020 74 115 0.0 2.0 0.00 0.00 0.00 45 1007.6
20260505004541 75 90 0.0 2.0 0.00 0.00 0.00 44 1007.3
20260505003046 75 96 0.0 3.0 0.00 0.00 0.00 43 1007.4
20260505001600 76 123 0.0 2.0 0.00 0.00 0.00 44 1007.3
20260505000011 76 86 0.0 4.0 0.00 0.00 0.00 43 1007.4
20260504234524 77 126 0.0 5.0 0.00 0.00 0.00 41 1007.3
20260504233050 78 315 1.0 6.0 0.00 0.00 0.00 40 1007.5
20260504231549 78 95 0.0 4.0 0.00 0.00 0.00 40 1007.4
20260504230111 79 360 0.0 4.0 0.00 0.00 0.00 40 1007.6
20260504224513 79 126 1.0 8.0 0.00 0.00 0.00 38 1007.7
20260504223034 78 225 0.0 3.0 0.00 0.00 0.00 38 1007.6
20260504221546 79 98 1.0 7.0 0.00 0.00 0.00 39 1007.7
20260504220118 79 298 1.0 6.0 0.00 0.00 0.00 39 1007.7
20260504214503 79 299 2.0 8.0 0.00 0.00 0.00 39 1007.7
20260504213018 79 265 1.0 3.0 0.00 0.00 0.00 39 1007.6
20260504211530 80 329 1.0 6.0 0.00 0.00 0.00 38 1007.8
20260504210043 79 327 0.0 6.0 0.00 0.00 0.00 38 1007.9
20260504204606 79 264 1.0 8.0 0.00 0.00 0.00 39 1008.1
20260504203005 80 307 1.0 5.0 0.00 0.00 0.00 38 1008.3
20260504201516 79 294 1.0 10.0 0.00 0.00 0.00 40 1008.6
20260504200031 79 123 0.0 4.0 0.00 0.00 0.00 42 1008.8
20260504194546 79 298 1.0 5.0 0.00 0.00 0.00 40 1009.0
20260504193059 79 276 0.0 4.0 0.00 0.00 0.00 41 1009.3
20260504191512 79 309 1.0 7.0 0.00 0.00 0.00 39 1009.7
20260504190020 79 293 1.0 6.0 0.00 0.00 0.00 39 1009.8
20260504184536 78 290 0.0 6.0 0.00 0.00 0.00 41 1010.0
20260504183047 78 300 1.0 9.0 0.00 0.00 0.00 41 1009.9
20260504181609 78 134 0.0 6.0 0.00 0.00 0.00 41 1010.1
20260504180010 78 263 1.0 7.0 0.00 0.00 0.00 44 1010.2
20260504174524 77 319 1.0 6.0 0.00 0.00 0.00 44 1010.5
20260504173035 77 317 2.0 9.0 0.00 0.00 0.00 44 1010.7
20260504171549 76 288 1.0 5.0 0.00 0.00 0.00 46 1010.8
20260504170104 75 271 1.0 6.0 0.00 0.00 0.00 46 1011.1
20260504081504 61 308 0.0 2.0 0.00 0.00 0.00 66 1011.9
20260504044554 60 355 0.0 2.0 0.00 0.00 0.00 60 1013.4
20260504043004 60 355 0.0 0.0 0.00 0.00 0.00 60 1013.4
20260504041515 60 355 0.0 0.0 0.00 0.00 0.00 59 1013.4
20260504040029 60 355 0.0 0.0 0.00 0.00 0.00 59 1013.5
20260504034542 61 355 0.0 0.0 0.00 0.00 0.00 58 1013.5
20260504033059 61 355 0.0 0.0 0.00 0.00 0.00 56 1013.8
20260504031505 61 355 0.0 0.0 0.00 0.00 0.00 56 1013.9
20260504030025 62 355 0.0 0.0 0.00 0.00 0.00 54 1014.0
20260504024534 62 355 0.0 2.0 0.00 0.00 0.00 53 1013.9
20260504023045 63 355 0.0 0.0 0.00 0.00 0.00 52 1013.7
20260504021559 64 355 0.0 0.0 0.00 0.00 0.00 50 1013.8
20260504020011 65 355 0.0 0.0 0.00 0.00 0.00 49 1013.6
20260504014533 65 355 0.0 0.0 0.00 0.00 0.00 47 1013.5
20260504013043 67 355 0.0 0.0 0.00 0.00 0.00 45 1013.4
20260504011548 68 355 0.0 0.0 0.00 0.00 0.00 44 1013.4